BAW601 EGKK-EDDH

Flight info

Callsign BAW601
Flight time 1h 8m
Altitude 37000
Route EGKK/08R FRAN1Z FRANE M604 PAAVO Q295 SOMVA DCT MAVAS DCT PARYD DCT GASTU DCT OSTOR T904 RIBSO RIBS7A EDDH
Aircraft A339/M-L/C

Departure

Time 2026-05-07 18:31
Airport London Gatwick Airport (EGKK)

Arrival

Time 2026-05-07 19:40
Airport Hamburg Helmut Schmidt Airport (EDDH)
Time Latitude Longitude Altitude Speed Heading
2026-05-07 18:15 51.15659 -0.16912 214 ft 0 kts 259°
2026-05-07 18:16 51.15659 -0.16913 214 ft 0 kts 259°
2026-05-07 18:16 51.15659 -0.16912 214 ft 0 kts 259°
2026-05-07 18:16 51.15659 -0.16913 214 ft 0 kts 259°
2026-05-07 18:17 51.15656 -0.16937 214 ft 5 kts 259°
2026-05-07 18:17 51.15645 -0.17029 214 ft 11 kts 259°
2026-05-07 18:17 51.15625 -0.17172 214 ft 13 kts 256°
2026-05-07 18:17 51.15603 -0.17303 214 ft 11 kts 255°
2026-05-07 18:18 51.15583 -0.17400 214 ft 6 kts 240°
2026-05-07 18:18 51.15540 -0.17438 214 ft 8 kts 182°
2026-05-07 18:18 51.15476 -0.17416 214 ft 10 kts 165°
2026-05-07 18:18 51.15450 -0.17405 214 ft 1 kts 165°
2026-05-07 18:19 51.15445 -0.17403 214 ft 0 kts 165°
2026-05-07 18:19 51.15436 -0.17399 214 ft 2 kts 165°
2026-05-07 18:19 51.15414 -0.17390 214 ft 2 kts 165°
2026-05-07 18:19 51.15403 -0.17385 214 ft 0 kts 166°
2026-05-07 18:20 51.15400 -0.17384 214 ft 1 kts 166°
2026-05-07 18:20 51.15372 -0.17373 214 ft 6 kts 167°
2026-05-07 18:20 51.15323 -0.17390 214 ft 8 kts 220°
2026-05-07 18:20 51.15296 -0.17479 214 ft 10 kts 253°
2026-05-07 18:21 51.15270 -0.17646 214 ft 20 kts 257°
2026-05-07 18:21 51.15237 -0.17889 214 ft 23 kts 258°
2026-05-07 18:21 51.15203 -0.18148 214 ft 24 kts 258°
2026-05-07 18:21 51.15168 -0.18414 214 ft 24 kts 258°
2026-05-07 18:22 51.15134 -0.18676 214 ft 23 kts 257°
2026-05-07 18:22 51.15110 -0.18845 214 ft 23 kts 258°
2026-05-07 18:22 51.15068 -0.19162 214 ft 18 kts 258°
2026-05-07 18:22 51.15040 -0.19365 214 ft 19 kts 258°
2026-05-07 18:23 51.15011 -0.19571 214 ft 19 kts 257°
2026-05-07 18:23 51.14982 -0.19778 214 ft 19 kts 257°
2026-05-07 18:23 51.14954 -0.19987 214 ft 19 kts 258°
2026-05-07 18:23 51.14925 -0.20196 214 ft 19 kts 257°
2026-05-07 18:24 51.14899 -0.20382 214 ft 15 kts 258°
2026-05-07 18:24 51.14880 -0.20523 214 ft 13 kts 258°
2026-05-07 18:24 51.14859 -0.20682 214 ft 15 kts 257°
2026-05-07 18:24 51.14833 -0.20860 214 ft 17 kts 259°
2026-05-07 18:25 51.14809 -0.21044 214 ft 12 kts 258°
2026-05-07 18:25 51.14784 -0.21176 214 ft 13 kts 251°
2026-05-07 18:25 51.14759 -0.21304 214 ft 6 kts 242°
2026-05-07 18:25 51.14740 -0.21341 214 ft 0 kts 216°
2026-05-07 18:28 51.14719 -0.21357 214 ft 7 kts 199°
2026-05-07 18:28 51.14663 -0.21346 214 ft 8 kts 161°
2026-05-07 18:29 51.14645 -0.21337 214 ft 0 kts 161°
2026-05-07 18:30 51.14644 -0.21336 214 ft 1 kts 161°
2026-05-07 18:30 51.14613 -0.21319 214 ft 9 kts 162°
2026-05-07 18:30 51.14544 -0.21263 214 ft 11 kts 135°
2026-05-07 18:30 51.14521 -0.21141 214 ft 12 kts 82°
2026-05-07 18:31 51.14567 -0.20820 214 ft 60 kts 78°
2026-05-07 18:31 51.14702 -0.19836 215 ft 121 kts 78°
2026-05-07 18:31 51.14920 -0.18255 288 ft 163 kts 78°
2026-05-07 18:31 51.15178 -0.16514 904 ft 160 kts 79°
2026-05-07 18:32 51.15426 -0.14790 1532 ft 161 kts 80°
2026-05-07 18:32 51.15660 -0.13066 2113 ft 162 kts 80°
2026-05-07 18:32 51.15901 -0.11252 2430 ft 177 kts 80°
2026-05-07 18:32 51.16170 -0.09246 2757 ft 193 kts 79°
2026-05-07 18:33 51.16465 -0.07073 3082 ft 210 kts 79°
2026-05-07 18:33 51.16754 -0.04698 3419 ft 227 kts 84°
2026-05-07 18:33 51.16867 -0.02093 3776 ft 245 kts 91°
2026-05-07 18:33 51.16835 0.00709 4237 ft 258 kts 92°
2026-05-07 18:34 51.16779 0.03576 4753 ft 261 kts 92°
2026-05-07 18:34 51.16722 0.06446 4973 ft 262 kts 92°
2026-05-07 18:34 51.16665 0.09357 4979 ft 262 kts 92°
2026-05-07 18:34 51.16610 0.12278 4982 ft 262 kts 92°
2026-05-07 18:35 51.16556 0.15167 4981 ft 261 kts 92°
2026-05-07 18:35 51.16539 0.18019 4981 ft 261 kts 90°
2026-05-07 18:35 51.16552 0.20933 4983 ft 262 kts 90°
2026-05-07 18:35 51.16565 0.23832 4984 ft 261 kts 90°
2026-05-07 18:36 51.16575 0.26723 4982 ft 261 kts 90°
2026-05-07 18:36 51.16581 0.29586 4980 ft 261 kts 90°
2026-05-07 18:36 51.16586 0.32508 5161 ft 268 kts 90°
2026-05-07 18:36 51.16590 0.35492 5971 ft 270 kts 90°
2026-05-07 18:37 51.16592 0.38464 6847 ft 270 kts 90°
2026-05-07 18:37 51.16711 0.41446 7561 ft 275 kts 75°
2026-05-07 18:37 51.17671 0.44004 8261 ft 280 kts 41°
2026-05-07 18:37 51.19387 0.45400 9016 ft 282 kts 15°
2026-05-07 18:38 51.21292 0.46215 9669 ft 288 kts 15°
2026-05-07 18:38 51.23227 0.47113 10322 ft 295 kts 16°
2026-05-07 18:38 51.25250 0.48116 10735 ft 311 kts 17°
2026-05-07 18:38 51.27433 0.49247 11070 ft 328 kts 18°
2026-05-07 18:39 51.29632 0.50416 11631 ft 338 kts 18°
2026-05-07 18:39 51.31878 0.51627 12365 ft 341 kts 18°
2026-05-07 18:39 51.34137 0.52853 13076 ft 345 kts 18°
2026-05-07 18:39 51.36435 0.54105 13790 ft 349 kts 18°
2026-05-07 18:40 51.38743 0.55367 14479 ft 353 kts 18°
2026-05-07 18:40 51.41077 0.56646 15187 ft 357 kts 18°
2026-05-07 18:40 51.43433 0.57937 15738 ft 360 kts 18°
2026-05-07 18:40 51.45803 0.59238 15981 ft 361 kts 18°
2026-05-07 18:41 51.48196 0.60553 15990 ft 360 kts 18°
2026-05-07 18:41 51.50532 0.61837 15996 ft 360 kts 18°
2026-05-07 18:41 51.52919 0.63152 16257 ft 367 kts 18°
2026-05-07 18:41 51.55354 0.64496 17038 ft 368 kts 18°
2026-05-07 18:42 51.57785 0.65841 17807 ft 369 kts 18°
2026-05-07 18:42 51.60180 0.67165 18465 ft 372 kts 18°
2026-05-07 18:42 51.62635 0.68524 19130 ft 376 kts 18°
2026-05-07 18:42 51.65115 0.69898 19780 ft 380 kts 18°
2026-05-07 18:43 51.67633 0.71294 20414 ft 383 kts 18°
2026-05-07 18:43 51.70165 0.72700 21032 ft 387 kts 18°
2026-05-07 18:43 51.72686 0.74102 21630 ft 391 kts 18°
2026-05-07 18:43 51.75269 0.75540 22213 ft 394 kts 18°
2026-05-07 18:44 51.77867 0.76988 22782 ft 398 kts 18°
2026-05-07 18:44 51.80466 0.78587 23232 ft 405 kts 24°
2026-05-07 18:44 51.82974 0.80846 23523 ft 416 kts 33°
2026-05-07 18:44 51.85213 0.83890 23961 ft 423 kts 49°
2026-05-07 18:45 51.86078 0.85756 24227 ft 424 kts 55°
2026-05-07 18:45 51.87577 0.89939 24774 ft 427 kts 64°
2026-05-07 18:45 51.88759 0.94360 25252 ft 431 kts 68°
2026-05-07 18:45 51.89891 0.98859 25718 ft 434 kts 68°
2026-05-07 18:46 51.91025 1.03395 26174 ft 438 kts 68°
2026-05-07 18:46 51.92172 1.07961 26621 ft 441 kts 68°
2026-05-07 18:46 51.93323 1.12523 27044 ft 444 kts 68°
2026-05-07 18:46 51.94502 1.17182 27469 ft 447 kts 68°
2026-05-07 18:47 51.95683 1.21846 27888 ft 450 kts 68°
2026-05-07 18:47 51.96873 1.26545 28291 ft 453 kts 68°
2026-05-07 18:47 51.98071 1.31285 28690 ft 456 kts 68°
2026-05-07 18:47 51.99273 1.36048 29086 ft 459 kts 68°
2026-05-07 18:48 52.00468 1.40786 29479 ft 461 kts 68°
2026-05-07 18:48 52.01682 1.45620 29862 ft 463 kts 67°
2026-05-07 18:48 52.02902 1.50482 30218 ft 466 kts 67°
2026-05-07 18:48 52.04113 1.55314 30574 ft 469 kts 68°
2026-05-07 18:49 52.05338 1.60219 30938 ft 471 kts 68°
2026-05-07 18:49 52.06573 1.65178 31259 ft 473 kts 68°
2026-05-07 18:49 52.07832 1.70235 31571 ft 476 kts 68°
2026-05-07 18:49 52.09056 1.75167 31907 ft 477 kts 68°
2026-05-07 18:50 52.10300 1.80187 32362 ft 475 kts 69°
2026-05-07 18:50 52.11528 1.85162 32826 ft 473 kts 69°
2026-05-07 18:50 52.12748 1.90109 33244 ft 471 kts 69°
2026-05-07 18:50 52.13964 1.95056 33628 ft 471 kts 69°
2026-05-07 18:51 52.15158 1.99921 33981 ft 471 kts 69°
2026-05-07 18:51 52.16373 2.04889 34235 ft 473 kts 69°
2026-05-07 18:51 52.17588 2.09861 34492 ft 474 kts 69°
2026-05-07 18:51 52.18808 2.14863 34808 ft 473 kts 69°
2026-05-07 18:52 52.20003 2.19773 35130 ft 472 kts 69°
2026-05-07 18:52 52.21208 2.24748 35435 ft 470 kts 69°
2026-05-07 18:52 52.22405 2.29702 35691 ft 470 kts 69°
2026-05-07 18:52 52.23609 2.34690 35934 ft 470 kts 69°
2026-05-07 18:53 52.24690 2.39177 36170 ft 469 kts 69°
2026-05-07 18:53 52.25884 2.44140 36416 ft 469 kts 69°
2026-05-07 18:53 52.27068 2.49077 36658 ft 468 kts 69°
2026-05-07 18:53 52.28232 2.53940 36889 ft 467 kts 69°
2026-05-07 18:54 52.29412 2.58887 37049 ft 469 kts 69°
2026-05-07 18:54 52.31300 2.67626 37070 ft 473 kts 74°
2026-05-07 18:55 52.33183 2.78210 37078 ft 473 kts 75°
2026-05-07 18:55 52.34976 2.88491 37069 ft 473 kts 75°
2026-05-07 18:56 52.36779 2.98843 37077 ft 473 kts 75°
2026-05-07 18:56 52.38557 3.09097 37078 ft 472 kts 75°
2026-05-07 18:57 52.40338 3.19420 37081 ft 473 kts 75°
2026-05-07 18:57 52.42130 3.29812 37087 ft 477 kts 74°
2026-05-07 18:58 52.44578 3.39995 37083 ft 484 kts 67°
2026-05-07 18:58 52.47314 3.50179 37083 ft 488 kts 67°
2026-05-07 18:59 52.49998 3.60315 37081 ft 488 kts 67°
2026-05-07 18:59 52.52687 3.70610 37081 ft 488 kts 68°
2026-05-07 19:00 52.55338 3.80842 37082 ft 487 kts 68°
2026-05-07 19:00 52.57962 3.91028 37084 ft 487 kts 68°
2026-05-07 19:01 52.60599 4.01312 37088 ft 487 kts 68°
2026-05-07 19:01 52.63217 4.11569 37090 ft 486 kts 68°
2026-05-07 19:02 52.65803 4.21748 37090 ft 485 kts 68°
2026-05-07 19:02 52.68392 4.31985 37090 ft 485 kts 68°
2026-05-07 19:03 52.70974 4.42246 37088 ft 485 kts 68°
2026-05-07 19:03 52.73552 4.52536 37089 ft 485 kts 68°
2026-05-07 19:04 52.76114 4.62809 37086 ft 486 kts 68°
2026-05-07 19:04 52.78670 4.73106 37088 ft 486 kts 69°
2026-05-07 19:05 52.81218 4.83423 37090 ft 485 kts 69°
2026-05-07 19:05 52.83738 4.93666 37090 ft 484 kts 69°
2026-05-07 19:06 52.86264 5.03981 37088 ft 484 kts 69°
2026-05-07 19:06 52.89872 5.19482 37080 ft 483 kts 76°
2026-05-07 19:07 52.91341 5.30322 37088 ft 483 kts 79°
2026-05-07 19:07 52.92726 5.41188 37087 ft 483 kts 78°
2026-05-07 19:08 52.94121 5.51974 37086 ft 483 kts 78°
2026-05-07 19:08 52.95536 5.62842 37088 ft 483 kts 78°
2026-05-07 19:09 52.96945 5.73706 37091 ft 482 kts 79°
2026-05-07 19:09 52.98335 5.84486 37084 ft 483 kts 79°
2026-05-07 19:10 52.99726 5.95354 37090 ft 482 kts 79°
2026-05-07 19:10 53.01107 6.06236 37091 ft 483 kts 79°
2026-05-07 19:11 53.02474 6.17087 37089 ft 484 kts 79°
2026-05-07 19:11 53.03948 6.27970 37083 ft 484 kts 72°
2026-05-07 19:12 53.06589 6.38220 37097 ft 485 kts 65°
2026-05-07 19:12 53.09391 6.48392 37094 ft 485 kts 66°
2026-05-07 19:13 53.12139 6.58534 37099 ft 484 kts 66°
2026-05-07 19:13 53.14903 6.68872 37098 ft 484 kts 67°
2026-05-07 19:14 53.17602 6.79049 37092 ft 484 kts 67°
2026-05-07 19:14 53.20310 6.89315 37094 ft 485 kts 67°
2026-05-07 19:15 53.23024 6.99652 37095 ft 485 kts 67°
2026-05-07 19:15 53.25703 7.09902 37092 ft 485 kts 67°
2026-05-07 19:16 53.28384 7.20212 37088 ft 485 kts 67°
2026-05-07 19:16 53.31056 7.30533 37084 ft 485 kts 67°
2026-05-07 19:17 53.33714 7.40848 37092 ft 485 kts 67°
2026-05-07 19:17 53.36367 7.51184 36963 ft 486 kts 67°
2026-05-07 19:18 53.37693 7.56370 36475 ft 486 kts 67°
2026-05-07 19:18 53.38865 7.61561 35982 ft 484 kts 72°
2026-05-07 19:18 53.39857 7.66968 35390 ft 485 kts 75°
2026-05-07 19:18 53.40784 7.72371 34693 ft 478 kts 76°
2026-05-07 19:19 53.41684 7.77658 33933 ft 471 kts 76°
2026-05-07 19:19 53.42589 7.82942 33199 ft 475 kts 75°
2026-05-07 19:19 53.43496 7.88190 32469 ft 479 kts 75°
2026-05-07 19:19 53.44426 7.93547 31674 ft 482 kts 75°
2026-05-07 19:20 53.45365 7.98941 30849 ft 486 kts 75°
2026-05-07 19:20 53.46310 8.04372 29958 ft 488 kts 75°
2026-05-07 19:20 53.47254 8.09806 29074 ft 487 kts 74°
2026-05-07 19:20 53.48190 8.15185 28190 ft 474 kts 74°
2026-05-07 19:21 53.49091 8.20387 27318 ft 460 kts 73°
2026-05-07 19:21 53.49960 8.25419 26452 ft 453 kts 73°
2026-05-07 19:21 53.50827 8.30438 25566 ft 443 kts 73°
2026-05-07 19:21 53.51670 8.35353 24720 ft 437 kts 73°
2026-05-07 19:22 53.52500 8.40200 23857 ft 431 kts 73°
2026-05-07 19:22 53.53322 8.45001 23006 ft 428 kts 73°
2026-05-07 19:22 53.54136 8.49759 22159 ft 423 kts 73°
2026-05-07 19:22 53.54932 8.54427 21297 ft 422 kts 73°
2026-05-07 19:23 53.55724 8.59095 20395 ft 413 kts 73°
2026-05-07 19:23 53.56503 8.63692 19527 ft 407 kts 73°
2026-05-07 19:23 53.57275 8.68264 18668 ft 403 kts 74°
2026-05-07 19:23 53.58032 8.72765 17779 ft 400 kts 74°
2026-05-07 19:24 53.58769 8.77157 16906 ft 395 kts 74°
2026-05-07 19:24 53.59505 8.81561 16035 ft 391 kts 74°
2026-05-07 19:24 53.60231 8.85914 15210 ft 384 kts 74°
2026-05-07 19:24 53.60936 8.90146 14605 ft 368 kts 74°
2026-05-07 19:25 53.61611 8.94204 14087 ft 350 kts 74°
2026-05-07 19:25 53.62245 8.98030 13623 ft 336 kts 74°
2026-05-07 19:25 53.62858 9.01736 13135 ft 323 kts 74°
2026-05-07 19:25 53.63449 9.05315 12617 ft 313 kts 74°
2026-05-07 19:26 53.64020 9.08784 12140 ft 304 kts 74°
2026-05-07 19:26 53.64581 9.12199 11647 ft 302 kts 74°
2026-05-07 19:26 53.65128 9.15534 11131 ft 299 kts 74°
2026-05-07 19:26 53.65678 9.18894 10550 ft 296 kts 74°
2026-05-07 19:27 53.66222 9.22224 9910 ft 293 kts 74°
2026-05-07 19:27 53.66757 9.25505 9289 ft 289 kts 74°
2026-05-07 19:27 53.67284 9.28740 8675 ft 285 kts 74°
2026-05-07 19:27 53.67796 9.31889 8073 ft 282 kts 74°
2026-05-07 19:28 53.68309 9.35055 7461 ft 278 kts 74°
2026-05-07 19:28 53.68814 9.38179 6865 ft 274 kts 74°
2026-05-07 19:28 53.69179 9.41292 6244 ft 271 kts 90°
2026-05-07 19:28 53.68741 9.44330 5663 ft 269 kts 118°
2026-05-07 19:29 53.67485 9.46612 5322 ft 269 kts 146°
2026-05-07 19:29 53.65762 9.47730 5218 ft 264 kts 163°
2026-05-07 19:29 53.63971 9.48244 5015 ft 257 kts 171°
2026-05-07 19:29 53.62254 9.48546 4672 ft 250 kts 171°
2026-05-07 19:30 53.60532 9.48822 4227 ft 247 kts 172°
2026-05-07 19:30 53.58816 9.49081 4114 ft 249 kts 172°
2026-05-07 19:30 53.57088 9.49352 4109 ft 250 kts 170°
2026-05-07 19:30 53.55361 9.49719 4119 ft 248 kts 169°
2026-05-07 19:31 53.53688 9.50103 4126 ft 237 kts 168°
2026-05-07 19:31 53.52107 9.50460 4108 ft 227 kts 168°
2026-05-07 19:31 53.50575 9.50798 4097 ft 216 kts 168°
2026-05-07 19:31 53.49118 9.51109 4098 ft 208 kts 169°
2026-05-07 19:32 53.47678 9.51414 4112 ft 208 kts 167°
2026-05-07 19:32 53.46323 9.52124 4058 ft 201 kts 149°
2026-05-07 19:32 53.45237 9.53467 3816 ft 196 kts 120°
2026-05-07 19:32 53.44776 9.55543 3662 ft 187 kts 98°
2026-05-07 19:33 53.44622 9.57701 3353 ft 189 kts 94°
2026-05-07 19:33 53.44688 9.59901 3034 ft 190 kts 76°
2026-05-07 19:33 53.45116 9.61984 2995 ft 190 kts 65°
2026-05-07 19:33 53.45777 9.63926 2978 ft 192 kts 57°
2026-05-07 19:34 53.46596 9.65677 2981 ft 194 kts 51°
2026-05-07 19:34 53.47493 9.67371 2969 ft 193 kts 51°
2026-05-07 19:34 53.48365 9.69030 2960 ft 182 kts 51°
2026-05-07 19:34 53.49157 9.70581 2964 ft 168 kts 52°
2026-05-07 19:35 53.49880 9.72028 2968 ft 161 kts 53°
2026-05-07 19:35 53.50599 9.73493 2993 ft 162 kts 53°
2026-05-07 19:35 53.51314 9.74960 2990 ft 162 kts 53°
2026-05-07 19:35 53.52032 9.76434 2989 ft 163 kts 53°
2026-05-07 19:36 53.52753 9.77913 2863 ft 164 kts 53°
2026-05-07 19:36 53.53464 9.79369 2649 ft 162 kts 53°
2026-05-07 19:36 53.54180 9.80832 2436 ft 161 kts 53°
2026-05-07 19:36 53.54893 9.82285 2225 ft 161 kts 53°
2026-05-07 19:37 53.55602 9.83731 2013 ft 160 kts 53°
2026-05-07 19:37 53.56311 9.85173 1799 ft 159 kts 53°
2026-05-07 19:37 53.57004 9.86583 1590 ft 158 kts 53°
2026-05-07 19:37 53.57706 9.88009 1375 ft 156 kts 52°
2026-05-07 19:38 53.58380 9.89378 1157 ft 149 kts 52°
2026-05-07 19:38 53.59025 9.90686 965 ft 142 kts 52°
2026-05-07 19:38 53.59655 9.91966 789 ft 142 kts 52°
2026-05-07 19:38 53.60282 9.93239 599 ft 138 kts 51°
2026-05-07 19:39 53.60873 9.94437 414 ft 132 kts 51°
2026-05-07 19:39 53.61451 9.95611 232 ft 131 kts 51°
2026-05-07 19:39 53.62037 9.96814 79 ft 131 kts 50°
2026-05-07 19:39 53.62604 9.97957 40 ft 121 kts 49°
2026-05-07 19:40 53.63054 9.98857 45 ft 83 kts 51°
2026-05-07 19:40 53.63280 9.99353 40 ft 30 kts 68°
2026-05-07 19:40 53.63284 9.99592 40 ft 12 kts 100°
2026-05-07 19:40 53.63279 9.99631 40 ft 1 kts 100°
2026-05-07 19:41 53.63278 9.99643 40 ft 1 kts 100°
2026-05-07 19:41 53.63277 9.99652 40 ft 1 kts 100°
2026-05-07 19:41 53.63272 9.99686 40 ft 4 kts 108°
2026-05-07 19:41 53.63247 9.99741 39 ft 8 kts 142°
2026-05-07 19:42 53.63185 9.99800 38 ft 12 kts 154°
2026-05-07 19:42 53.63100 9.99869 37 ft 14 kts 154°
2026-05-07 19:42 53.63009 9.99944 37 ft 14 kts 153°
2026-05-07 19:42 53.62960 10.00003 38 ft 6 kts 122°
2026-05-07 19:43 53.62953 10.00047 40 ft 0 kts 88°
2026-05-07 19:43 53.62953 10.00045 40 ft 0 kts 88°
2026-05-07 19:43 53.62954 10.00062 41 ft 0 kts 79°
2026-05-07 19:43 53.62956 10.00074 41 ft 5 kts 77°
2026-05-07 19:44 53.62965 10.00121 44 ft 2 kts 69°
2026-05-07 19:44 53.62971 10.00150 46 ft 4 kts 78°
2026-05-07 19:44 53.62970 10.00189 47 ft 3 kts 101°
2026-05-07 19:44 53.62960 10.00234 48 ft 3 kts 116°
2026-05-07 19:45 53.62956 10.00246 48 ft 0 kts 117°